Weather History for Alexandria Esle, LA

Change the Weather History Date:

Sunday, January 13, 2013

  Actual Average Record
Temperature  
Mean Temperature 58 °F -  
Max Temperature 73 °F 57 °F 79 °F (1972)
Min Temperature 44 °F 36 °F 13 °F (1962)
Degree Days  
Heating Degree Days 6    
Growing Degree Days 8 (Base 50)    
Moisture  
Dew Point 50 °F    
Average Humidity 86    
Maximum Humidity 93    
Minimum Humidity 76    
Precipitation  
Precipitation 0.79 in - - ()
Sea Level Pressure  
Sea Level Pressure 29.98 in    
Wind  
Wind Speed 9 mph (NW)    
Max Wind Speed 14 mph    
Max Gust Speed 28 mph    
Visibility 8 miles    
Events Rain , Thunderstorm    
Averages and records for this station are not official NWS values.
T = Trace of Precipitation, MM = Missing Value Source: NWS Daily Summary

Daily Weather History Graph

Daily Weather History Graph

Search for Another Location

Airport:

Trip Planner

Search our weather history database for the weather conditions in past years. The results will help you decide how hot, cold, wet, or windy it might be!

Date:

Astronomy

Jan. 13, 2013 Rise Set
Actual Time 7:08 AM CST 5:27 PM CST
Civil Twilight 6:42 AM CST 5:53 PM CST
Nautical Twilight 6:12 AM CST 6:23 PM CST
Astronomical Twilight 5:43 AM CST 6:52 PM CST
Moon 8:18 AM CST (1/13) 7:53 PM CST (1/13)
Length of Visible Light 11h 11m
Length of Day
10h 18m
Waxing Crescent, 5% of the Moon is Illuminated
Jan 13
Waxing Crescent
Jan 18
First Quarter
Jan 26
Full
Feb 3
Last Quarter
Feb 10
New

Hourly Weather History & Observations

Time (CST) Temp. Windchill Dew Point Humidity Pressure Visibility Wind Dir Wind Speed Gust Speed Precip Events Conditions
12:53 AM 73.0 °F - 66.9 °F 81% 29.78 in 10.0 mi South 13.8 mph 25.3 mph N/A   Overcast
1:53 AM 73.0 °F - 66.0 °F 79% 29.82 in 10.0 mi SW 10.4 mph 21.9 mph N/A   Overcast
2:13 AM 73.4 °F - 66.2 °F 78% 29.83 in 10.0 mi SSW 8.1 mph 19.6 mph N/A   Overcast
2:53 AM 73.0 °F - 66.0 °F 79% 29.83 in 10.0 mi SSW 8.1 mph - 0.00 in Rain Light Rain
3:53 AM 72.0 °F - 66.0 °F 81% 29.81 in 10.0 mi South 5.8 mph - N/A   Mostly Cloudy
4:53 AM 71.1 °F - 66.0 °F 84% 29.80 in 10.0 mi South 6.9 mph - N/A   Clear
5:53 AM 72.0 °F - 66.0 °F 81% 29.80 in 10.0 mi South 9.2 mph - N/A   Clear
6:34 AM 71.6 °F - 66.2 °F 83% 29.81 in 10.0 mi South 8.1 mph 17.3 mph N/A   Mostly Cloudy
6:41 AM 71.6 °F - 66.2 °F 83% 29.81 in 10.0 mi South 11.5 mph 19.6 mph N/A   Scattered Clouds
6:53 AM 72.0 °F - 66.0 °F 81% 29.82 in 10.0 mi South 11.5 mph 18.4 mph N/A   Scattered Clouds
7:13 AM 71.6 °F - 66.2 °F 83% 29.84 in 10.0 mi SSW 10.4 mph - N/A   Mostly Cloudy
7:53 AM 64.9 °F - 60.1 °F 84% 29.86 in 10.0 mi WNW 13.8 mph 27.6 mph N/A   Overcast
8:53 AM 53.1 °F - 50.0 °F 89% 29.93 in 10.0 mi WNW 10.4 mph - 0.01 in Rain Light Rain
9:53 AM 51.1 °F - 48.9 °F 92% 29.97 in 8.0 mi NW 8.1 mph - 0.05 in Rain Light Rain
10:53 AM 51.1 °F - 48.0 °F 89% 29.96 in 10.0 mi Variable 6.9 mph - 0.01 in   Overcast
11:18 AM 51.8 °F - 46.4 °F 82% 29.98 in 10.0 mi NW 9.2 mph 16.1 mph 0.00 in Thunderstorm Overcast
11:32 AM 50.0 °F - 46.4 °F 87% 29.96 in 5.0 mi NNW 11.5 mph 21.9 mph 0.02 in Rain , Thunderstorm Thunderstorms and Rain
11:36 AM 50.0 °F - 46.4 °F 87% 29.96 in 1.5 mi Calm Calm - 0.11 in Rain , Thunderstorm Thunderstorms and Rain
11:48 AM 48.2 °F - 46.4 °F 93% 29.96 in 1.0 mi NW 10.4 mph 20.7 mph N/A Rain , Thunderstorm Heavy Thunderstorms and Rain
11:53 AM 48.9 °F - 46.9 °F 93% 29.97 in 1.2 mi Variable 3.5 mph 21.9 mph 0.36 in Rain , Thunderstorm Heavy Thunderstorms and Rain
12:17 PM 48.2 °F - 46.4 °F 93% 29.96 in 2.0 mi Variable 5.8 mph 17.3 mph 0.17 in Rain , Thunderstorm Heavy Thunderstorms and Rain
12:26 PM 48.2 °F - 46.4 °F 93% 29.98 in 3.0 mi NNW 8.1 mph - 0.20 in Rain Heavy Rain
12:30 PM 48.2 °F - 46.4 °F 93% 29.97 in 4.0 mi Variable 6.9 mph - 0.21 in Rain Light Rain
12:44 PM 48.2 °F - 44.6 °F 87% 29.99 in 6.0 mi NNW 9.2 mph - 0.22 in Rain Rain
12:53 PM 48.0 °F - 45.0 °F 89% 29.99 in 4.0 mi Variable 5.8 mph - 0.25 in Rain Rain
1:08 PM 48.2 °F - 44.6 °F 87% 29.98 in 6.0 mi Variable 3.5 mph 16.1 mph 0.02 in Rain Light Rain
1:53 PM 46.9 °F - 44.1 °F 90% 30.01 in 5.0 mi NNW 6.9 mph - 0.09 in Rain Rain
2:53 PM 46.9 °F - 44.1 °F 90% 30.03 in 10.0 mi NNW 10.4 mph 16.1 mph 0.02 in   Overcast
3:45 PM 48.2 °F - 44.6 °F 87% 30.06 in 10.0 mi North 8.1 mph - N/A   Overcast
3:53 PM 48.0 °F - 44.1 °F 86% 30.06 in 10.0 mi North 8.1 mph - N/A   Overcast
4:12 PM 48.2 °F - 44.6 °F 87% 30.08 in 10.0 mi NNW 8.1 mph - N/A   Overcast
4:53 PM 46.9 °F - 44.1 °F 90% 30.09 in 10.0 mi NNW 5.8 mph - N/A   Overcast
5:53 PM 46.0 °F 41.9 °F 43.0 °F 89% 30.12 in 10.0 mi NNE 8.1 mph - N/A   Overcast
6:53 PM 46.0 °F 42.5 °F 42.1 °F 86% 30.12 in 10.0 mi Variable 6.9 mph - N/A   Overcast
7:53 PM 46.0 °F 42.5 °F 42.1 °F 86% 30.14 in 10.0 mi Variable 6.9 mph - N/A   Overcast
8:53 PM 45.0 °F 41.2 °F 42.1 °F 90% 30.15 in 10.0 mi Variable 6.9 mph - N/A   Overcast
9:49 PM 44.6 °F 38.8 °F 39.2 °F 81% 30.14 in 10.0 mi North 11.5 mph 20.7 mph N/A   Overcast
9:53 PM 45.0 °F 40.1 °F 39.9 °F 82% 30.14 in 10.0 mi NNE 9.2 mph 20.7 mph N/A   Overcast
10:53 PM 44.1 °F 39.5 °F 39.9 °F 85% 30.16 in 10.0 mi NNE 8.1 mph 17.3 mph N/A   Overcast
11:36 PM 44.6 °F 39.2 °F 37.4 °F 76% 30.18 in 10.0 mi NE 10.4 mph 16.1 mph N/A   Overcast
11:53 PM 44.1 °F 40.8 °F 37.0 °F 76% 30.17 in 10.0 mi Variable 5.8 mph - N/A   Overcast